Location: *
(38.4303°S, 157.0822°W)
Time: 15:35:41
(UTC+00:00)

Cosmos 2263 Rocket - Pass Details

Date: 21 May 2024
Orbit: 824 x 846 km, 71.0° (Epoch: 22 June)

Event Time Altitude Azimuth Distance (km) Brightness Sun altitude
Exits shadow 14:28:25 22° 28° (NNE) 1,796 4.1 -35.0°
Drops below altitude 10° 14:30:14 10° 26° (NNE) 2,467 4.9 -34.7°
Sets 14:32:40 0° 24° (NNE) 3,393 5.6 -34.2°
